Location: Te Maire Creek
(41.1333°S, 175.9167°E)
Time: 22:00:37
(UTC+00:00)

Cosmos 1821 Rocket - Pass Details

Date: 19 May 2024
Orbit: 945 x 1004 km, 82.9° (Epoch: 21 June)

Event Time Altitude Azimuth Distance (km) Brightness Sun altitude
Exits shadow 17:25:10 41° 263° (W) 1,426 4.3 -21.8°
Maximum altitude 17:25:25 41° 269° (W) 1,421 4.3 -21.7°
Drops below altitude 10° 17:31:15 10° 336° (NNW) 2,742 6.2 -20.7°
Sets 17:33:52 0° 343° (NNW) 3,673 6.9 -20.2°
